Location: Hac?musa Deresi
(39.1694°N, 32.2508°E)
Time: 11:03:49
(UTC+00:00)

Cosmos 1140 Rocket - Pass Details

Date: 22 April 2026
Orbit: 740 x 761 km, 74.1° (Epoch: 20 May)

Event Time Altitude Azimuth Distance (km) Brightness Sun altitude
Rises 19:26:17 0° 340° (NNW) 3,194 7.8 -28.6°
Reaches altitude 10° 19:28:39 10° 340° (NNW) 2,264 6.8 -28.9°
Enters shadow 19:32:52 61° 335° (NNW) 842 3.8 -29.4°
